Find Lilo

NORAD ID: 64562 Int'l Des: 2025-135 Owner: HUBN/ENDUR Country: US operational
LEOCIRCULARRETROGRADESSO

实时位置

正在加载3D地球...

关于 Lilo

正在加载描述...

即将过境

Passes for default location (London). Set your location on the main map for personalized predictions.

高度历史

Loading altitude history...

两行轨道根数

1 64562U 25135AL 26119.55549257 .00001867 00000-0 18184-3 0 9997
2 64562 97.7691 234.2650 0001239 99.9951 260.1409 14.93705637 46617
Epoch: Apr 29, 2026 • Age: 6 hours

当前状态

高度 607.0 km
速度 7.55 km/s
星下点 -51.39°S, 100.88°W
发射日期 Jun 23, 2025
运行时间 0.8 years
类型 other

技术详情

分类 Payload
质量 22.00 kg
干质量 22.00 kg
总质量 22.00 kg
长度 0.50 m
直径 0.20 m
跨度 2.00 m
形状 Box+ 4 pan
制造商 ENDUR
平台类型 Cubesat 16U
阶段状态 In Orbit
所有者/国家 HUBN/ENDUR/US

Most Searched